SCP
0 0 0 0 0 0 0 0 0 0 0 0 0 0 0 0 0 0 0 0 0 0 0 0 0 0 0 0 0 0 0 0 0 0 0 0 0 0 0 0 0 0 0 0
0 0 0 0 0 0 0 0 0 0 -0 0 0 0 0 0 0 0 0 0 0 0 0 0 1 1 0 0 0 0 0 0 0 0 0 0 0 0 0 0 0 0 0 0
0 0 0 0 0 0 0 0 0 0 -0 0 0 0 0 0 0 0 0 0 0 0 0 0 1 2 1 1 0 0 -0 0 -0 0 0 0 0 0 1 0 0 0 0 0
0 0 0 0 0 0 0 0 0 -0 0 0 -0 0 0 0 0 0 0 0 0 0 0 0 1 3 2 1 0 0 0 0 0 0 0 1 0 0 0 1 0 0 0 0
0 0 0 0 0 0 0 0 0 -0 0 0 0 0 0 0 0 0 0 0 0 0 0 0 1 2 1 1 0 0 0 0 0 0 1 0 0 0 0 0 0 0 0 0
0 0 0 0 0 0 0 0 0 0 0 0 0 0 0 0 0 0 -0 0 0 0 0 0 1 1 1 2 2 2 1 1 1 1 0 0 0 0 0 0 0 0 0 0
0 0 0 0 0 0 0 0 0 0 0 0 0 0 0 0 0 0 0 0 0 0 0 0 1 1 1 1 0 0 0 0 0 0 0 0 0 0 0 0 0 0 0 0
0 0 0 0 0 0 0 0 0 0 0 0 0 0 0 0 0 0 0 0 0 0 0 -0 -0 -0 -0 0 0 0 0 0 0 0 0 0 0 0 0 0 0 0 0 0
0 0 0 0 0 0 0 0 0 0 0 0 0 0 0 0 0 0 0 0 0 0 0 -1 -0 -0 -0 -0 0 0 0 0 0 0 0 0 0 0 0 0 0 0 0 0
0 0 0 0 0 0 0 0 0 0 0 0 0 0 0 0 0 0 0 0 0 0 0 -0 -0 -0 -0 0 0 0 0 0 0 0 0 0 0 0 0 0 0 0 0 0
0 0 0 0 0 0 0 0 0 0 0 0 0 0 0 0 0 0 0 0 0 0 0 0 0 0 0 0 0 0 0 0 0 0 0 0 0 0 0 0 0 0 0 0
0 0 0 0 0 0 0 0 0 0 0 0 0 0 0 0 0 0 0 0 0 0 0 0 0 0 0 0 0 0 0 0 0 0 0 0 0 0 0 0 0 0 0 0
0 0 0 0 0 0 0 0 0 0 0 0 0 0 0 0 0 0 0 0 0 0 0 0 0 0 0 0 0 0 0 0 0 0 0 0 0 0 0 0 0 0 0 0
0 0 0 0 0 0 0 0 0 0 0 0 0 0 0 0 0 0 0 0 0 0 0 0 0 0 0 0 0 0 0 0 0 0 0 0 0 0 0 0 0 0 0 0
0 0 0 0 0 0 0 0 0 0 0 0 0 0 0 0 0 0 0 0 0 0 0 0 0 0 -0 0 0 0 0 0 0 0 0 0 0 0 0 0 0 0 0 0
0 0 0 0 0 0 0 0 0 0 0 0 0 0 0 0 0 0 0 0 0 0 0 0 0 0 0 0 0 0 0 0 0 0 0 0 0 0 0 0 0 0 0 0
0 0 0 0 0 0 0 0 0 0 0 0 0 0 0 0 0 0 0 0 0 0 0 0 0 0 0 0 0 0 0 0 0 0 0 0 0 0 0 0 0 0 0 0
0 0 0 0 0 0 0 0 0 0 0 0 0 0 0 0 0 0 0 0 -0 -0 -0 -0 0 0 0 0 0 0 0 0 0 0 0 0 0 0 0 0 0 0 0 0
0 0 0 0 0 0 0 0 0 0 0 0 0 0 -0 -0 -0 -0 -0 -0 -0 0 0 0 0 0 0 0 0 0 0 0 0 0 0 0 0 0 0 0 0 0 0 0
0 0 0 0 0 0 0 0 0 0 0 0 0 -0 -0 -0 -0 0 -0 -0 -0 0 0 0 0 0 0 0 0 0 0 0 0 0 0 0 0 0 0 0 0 0 0 0
0 0 0 0 0 0 0 0 0 0 0 0 0 0 -0 -0 0 0 0 0 0 0 0 0 0 0 0 0 0 0 0 0 0 0 0 0 0 0 0 0 0 0 0 0
0 0 0 0 0 0 0 0 0 0 0 0 0 -0 -0 -0 -0 0 0 0 0 0 0 0 0 0 0 0 0 0 0 0 0 0 0 0 0 0 0 0 0 0 0 0
0 0 0 0 0 0 0 0 0 -0 -0 -0 -0 -0 -0 -0 -0 0 0 0 0 0 0 0 0 0 0 0 0 0 0 0 0 0 0 0 0 0 0 0 0 0 0 0
0 0 0 0 0 0 0 0 0 0 -0 -0 -0 -0 -0 -0 -0 0 0 0 0 0 0 0 0 0 -0 -0 0 -0 -0 -0 0 0 0 0 0 0 0 0 0 0 0 0
0 0 0 0 0 0 0 0 -0 -0 -0 -0 -0 -0 -0 -0 0 0 0 0 0 0 0 0 0 0 0 0 -0 -0 -0 -0 0 0 0 0 0 0 0 0 -0 -0 0 0
0 0 0 0 0 0 0 -0 -0 -0 -0 -0 -0 -0 0 -0 0 0 0 0 0 0 0 0 0 0 0 0 0 0 -0 -0 0 0 0 0 0 0 0 0 -0 -0 0 0
Wind_Speed_500mb
38 25 40 41 31 15 17 17 16 9 18 15 25 28 21 36 32 35 51 57 68 64 70 66 45 44 46 54 56 56 53 55 63 82 57 55 64 48 42 45 42 27 18 14
15 39 22 21 25 30 19 24 21 14 13 13 23 27 31 28 20 49 58 63 53 53 68 67 47 56 54 54 54 48 31 35 49 60 62 57 50 51 43 48 34 23 20 10
41 14 31 31 25 28 25 28 13 19 8 20 10 23 30 21 44 53 62 68 60 56 62 59 56 63 62 62 57 42 43 43 49 39 33 30 44 58 44 47 47 34 26 18
33 42 47 27 34 27 32 18 26 37 13 12 12 21 13 21 24 14 34 48 65 59 58 57 65 68 69 65 56 52 54 60 49 41 38 37 38 46 47 41 39 31 27 29
39 40 50 41 49 37 23 24 32 35 24 10 36 2 14 7 9 14 17 31 44 52 58 59 70 71 72 63 68 64 63 64 53 43 37 29 25 32 33 28 31 31 33 26
42 33 43 53 31 41 27 21 24 27 18 15 28 12 12 9 12 11 13 50 55 47 45 55 64 76 78 73 64 67 61 64 58 45 40 36 35 38 43 34 32 34 32 29
33 38 32 24 41 34 41 20 9 10 9 13 20 9 14 8 8 14 18 38 52 43 36 49 76 81 82 75 68 65 64 58 51 49 45 47 48 44 49 37 34 35 36 36
32 23 51 40 36 29 31 32 11 14 10 11 8 7 10 11 11 24 25 63 42 37 34 64 86 85 80 77 73 73 65 60 55 50 47 46 45 49 51 48 41 37 36 36
23 25 10 44 35 33 27 20 22 8 5 8 3 2 13 24 27 25 31 40 31 48 71 80 82 82 78 70 63 55 47 41 35 32 34 42 47 48 44 40 36 31 29 28
7 12 33 31 20 37 34 12 13 5 13 7 1 6 3 16 18 24 33 45 56 55 57 79 89 82 66 56 48 37 33 34 36 34 30 29 30 27 26 25 25 26 29 31
4 4 4 6 8 30 14 29 7 13 11 9 6 6 11 10 11 27 27 59 65 70 65 62 83 82 68 57 51 47 40 36 30 23 19 14 11 9 12 15 16 18 22 26
17 2 7 10 12 2 5 6 11 14 7 5 10 9 5 9 22 44 41 56 75 77 67 69 61 59 63 57 53 50 43 38 29 19 11 7 2 3 9 13 18 24 29 33
19 11 8 6 8 6 7 7 8 11 9 7 12 8 3 19 26 47 58 61 73 73 60 50 48 52 62 61 55 47 36 29 21 11 4 3 9 15 20 23 27 33 37 40
3 7 7 13 4 8 9 5 5 10 9 11 7 11 3 12 27 27 55 66 69 74 67 44 42 44 47 45 35 26 17 8 2 4 9 13 17 20 25 29 33 37 39 41
2 7 10 7 5 13 7 20 14 9 14 15 15 22 14 15 23 39 62 66 73 69 57 56 59 46 37 30 21 11 2 8 13 16 18 19 24 29 33 36 38 40 43 46
5 7 25 8 21 13 4 2 6 7 13 20 29 13 6 26 37 31 42 53 54 56 64 61 52 41 34 21 13 4 6 15 20 22 23 28 34 39 43 46 49 50 51 54
8 5 9 10 8 3 2 2 4 12 25 38 27 13 13 28 25 38 53 50 59 60 59 57 45 34 25 16 8 8 13 18 23 27 30 36 40 45 49 51 50 49 50 50
7 4 6 7 5 7 3 6 8 23 12 28 34 26 22 36 42 38 59 72 63 60 56 47 37 25 17 11 11 18 23 27 30 35 38 42 45 47 46 45 46 48 48 47
5 4 8 8 4 4 6 7 9 37 12 27 48 42 55 71 87 49 52 68 65 55 46 38 27 20 14 17 22 25 27 29 33 36 38 37 36 36 37 40 42 46 48 44
7 2 6 6 8 5 4 6 14 8 7 14 54 45 49 62 25 15 55 65 59 48 38 31 23 18 15 21 24 27 30 30 29 33 35 33 34 35 35 35 41 42 39 34
8 7 10 7 8 7 24 23 13 12 10 51 67 54 41 16 31 58 57 54 45 36 31 25 22 27 34 31 33 32 35 36 36 33 35 34 33 34 32 33 37 38 34 31
5 9 6 8 6 6 23 19 14 12 39 57 54 73 80 84 73 64 56 50 41 38 31 27 27 30 29 30 33 38 41 42 43 40 32 31 30 30 29 30 33 30 29 31
3 7 10 5 6 3 41 61 58 72 71 68 81 76 91 79 74 67 61 51 40 31 26 22 22 23 27 33 34 35 40 45 49 43 34 29 27 24 24 27 28 28 25 27
15 17 20 23 16 38 66 66 70 79 77 73 81 84 82 81 70 65 57 47 37 27 22 17 19 24 30 33 32 35 34 47 52 41 32 27 26 26 27 27 28 26 26 29
3 11 28 37 35 55 60 74 84 84 88 86 78 76 77 74 66 59 51 39 32 29 22 16 19 23 29 29 34 35 35 46 56 41 30 26 29 31 30 27 22 20 20 20
7 23 21 23 33 55 45 72 91 90 85 86 86 79 70 66 64 53 45 34 30 29 21 19 18 22 26 26 34 32 36 42 57 48 33 28 31 33 34 30 24 18 14 13
Wind_Direction_500mb
195 197 207 211 218 228 224 220 236 220 229 238 245 255 236 251 228 236 242 250 247 250 245 243 228 198 178 172 178 186 195 204 195 186 201 216 209 211 206 213 223 226 238 261
220 218 203 206 201 204 212 234 244 288 266 221 249 250 240 233 230 231 234 238 234 237 235 232 215 184 180 174 170 162 161 194 189 205 216 212 217 227 242 229 238 223 230 202
215 216 201 202 212 210 220 228 228 239 300 271 270 265 253 248 229 232 234 235 237 229 225 219 202 188 180 171 162 170 171 179 162 172 188 206 219 228 225 218 219 217 226 231
226 232 198 202 217 208 229 213 233 252 250 251 165 269 226 211 204 202 221 235 243 233 207 202 193 183 179 176 174 178 178 173 169 171 183 196 196 192 203 213 206 213 224 228
208 200 218 211 213 207 232 219 227 242 249 251 273 222 266 144 237 256 252 226 229 213 204 198 190 181 177 175 178 177 171 169 173 177 198 204 225 240 231 207 210 221 222 218
219 201 201 226 219 218 218 230 233 247 243 246 250 165 282 190 184 267 274 215 183 185 194 195 189 173 173 176 169 169 174 175 182 197 201 205 217 226 229 216 220 207 200 188
214 219 225 203 225 224 213 206 237 218 206 218 230 144 226 234 258 252 188 176 182 185 193 183 171 169 175 174 172 179 179 179 187 195 198 202 215 217 212 198 176 175 185 192
214 216 212 218 207 205 214 198 163 187 161 192 203 193 250 238 324 25 208 171 182 189 201 171 171 172 170 170 173 176 182 179 185 194 199 203 205 192 191 187 190 196 201 206
191 221 176 217 226 212 219 197 200 153 158 91 243 116 14 28 20 40 63 67 84 140 151 157 162 161 160 162 165 169 165 168 174 164 157 159 164 168 171 175 182 193 206 220
283 208 229 241 240 226 209 199 167 289 132 162 297 73 137 20 31 44 58 53 65 88 104 127 144 142 140 125 114 107 121 134 138 148 156 158 161 169 175 185 201 215 228 241
267 30 7 47 117 226 221 213 189 127 126 145 131 235 183 141 96 77 64 70 67 75 83 98 118 116 110 105 104 106 109 113 115 121 126 142 160 181 213 230 250 266 275 281
205 305 180 205 278 328 186 124 150 167 168 159 152 240 177 149 113 100 77 81 88 85 85 97 101 107 110 112 112 112 116 112 113 118 121 119 106 299 293 293 294 293 292 291
164 207 121 49 321 217 205 129 123 117 117 184 139 243 2 120 115 111 107 105 101 104 94 92 109 106 112 113 114 114 116 121 128 136 121 307 297 294 292 291 291 291 293 295
29 186 156 180 128 123 132 132 253 153 104 156 168 151 188 92 127 125 116 114 112 114 112 134 120 115 105 109 116 125 122 115 113 317 311 304 300 294 292 293 292 291 291 293
293 196 166 114 133 135 147 210 221 179 171 153 181 148 169 158 142 148 139 130 136 136 141 142 135 131 128 126 127 128 121 311 306 302 303 300 296 295 294 292 290 291 291 291
220 246 159 105 81 40 166 229 325 184 113 100 128 88 160 118 117 124 136 135 130 127 117 124 126 124 121 118 106 78 307 301 301 299 295 293 292 293 293 294 296 296 295 293
218 241 94 124 20 359 193 249 284 134 148 139 142 146 117 125 140 151 142 124 118 117 119 128 125 115 105 92 54 340 324 309 298 294 295 292 290 292 294 296 298 298 299 299
236 87 68 123 83 175 164 269 252 106 99 112 113 116 115 104 113 122 116 115 112 118 122 113 106 98 71 36 351 339 319 309 307 302 299 295 297 298 299 301 303 305 305 306
224 104 97 108 94 320 125 15 113 120 91 116 118 120 118 111 95 77 108 127 121 117 111 101 88 72 45 17 359 338 325 319 316 311 308 311 312 310 311 313 320 323 320 316
160 227 108 108 97 96 303 182 196 154 54 151 134 137 133 123 104 121 121 121 116 110 101 91 71 63 42 30 12 358 355 350 343 340 333 327 324 322 321 327 333 327 325 324
176 159 105 109 100 197 105 150 169 76 200 149 136 135 118 96 119 133 125 112 108 101 94 87 76 58 47 36 26 23 19 12 1 346 333 330 330 330 328 329 328 325 322 322
76 116 101 86 122 89 107 125 169 164 112 115 109 112 105 115 123 122 116 112 108 102 92 77 69 58 47 29 18 18 17 10 1 354 342 334 332 334 333 333 330 329 330 335
189 162 127 101 109 43 84 109 115 118 114 116 115 117 121 121 122 121 117 115 109 99 84 65 51 48 40 26 19 15 15 8 3 358 355 350 349 350 346 345 340 342 344 337
60 45 110 90 72 89 95 97 104 111 113 115 118 122 126 123 125 121 118 115 109 96 76 54 46 45 34 23 19 15 11 14 11 9 11 13 15 16 8 360 352 348 346 354
87 109 105 100 102 91 90 100 108 110 120 122 128 132 131 131 127 126 121 118 112 103 93 77 55 40 31 23 18 17 12 14 19 21 22 27 26 18 15 26 4 359 9 19
56 135 119 123 114 109 111 112 123 118 121 128 128 126 128 129 126 125 117 115 109 100 98 87 62 37 26 28 21 26 17 14 19 25 24 20 21 21 21 27 50 34 50 37
Wind_Speed_850mb
38 25 40 41 31 15 17 17 16 9 18 15 25 28 21 36 32 35 51 57 68 64 70 66 45 44 46 54 56 56 53 55 63 82 57 55 64 48 42 45 42 27 18 14
15 39 22 21 25 30 19 24 21 14 13 13 23 27 31 28 20 49 58 63 53 53 68 67 47 56 54 54 54 48 31 35 49 60 62 57 50 51 43 48 34 23 20 10
41 14 31 31 25 28 25 28 13 19 8 20 10 23 30 21 44 53 62 68 60 56 62 59 56 63 62 62 57 42 43 43 49 39 33 30 44 58 44 47 47 34 26 18
33 42 47 27 34 27 32 18 26 37 13 12 12 21 13 21 24 14 34 48 65 59 58 57 65 68 69 65 56 52 54 60 49 41 38 37 38 46 47 41 39 31 27 29
39 40 50 41 49 37 23 24 32 35 24 10 36 2 14 7 9 14 17 31 44 52 58 59 70 71 72 63 68 64 63 64 53 43 37 29 25 32 33 28 31 31 33 26
42 33 43 53 31 41 27 21 24 27 18 15 28 12 12 9 12 11 13 50 55 47 45 55 64 76 78 73 64 67 61 64 58 45 40 36 35 38 43 34 32 34 32 29
33 38 32 24 41 34 41 20 9 10 9 13 20 9 14 8 8 14 18 38 52 43 36 49 76 81 82 75 68 65 64 58 51 49 45 47 48 44 49 37 34 35 36 36
32 23 51 40 36 29 31 32 11 14 10 11 8 7 10 11 11 24 25 63 42 37 34 64 86 85 80 77 73 73 65 60 55 50 47 46 45 49 51 48 41 37 36 36
23 25 10 44 35 33 27 20 22 8 5 8 3 2 13 24 27 25 31 40 31 48 71 80 82 82 78 70 63 55 47 41 35 32 34 42 47 48 44 40 36 31 29 28
7 12 33 31 20 37 34 12 13 5 13 7 1 6 3 16 18 24 33 45 56 55 57 79 89 82 66 56 48 37 33 34 36 34 30 29 30 27 26 25 25 26 29 31
4 4 4 6 8 30 14 29 7 13 11 9 6 6 11 10 11 27 27 59 65 70 65 62 83 82 68 57 51 47 40 36 30 23 19 14 11 9 12 15 16 18 22 26
17 2 7 10 12 2 5 6 11 14 7 5 10 9 5 9 22 44 41 56 75 77 67 69 61 59 63 57 53 50 43 38 29 19 11 7 2 3 9 13 18 24 29 33
19 11 8 6 8 6 7 7 8 11 9 7 12 8 3 19 26 47 58 61 73 73 60 50 48 52 62 61 55 47 36 29 21 11 4 3 9 15 20 23 27 33 37 40
3 7 7 13 4 8 9 5 5 10 9 11 7 11 3 12 27 27 55 66 69 74 67 44 42 44 47 45 35 26 17 8 2 4 9 13 17 20 25 29 33 37 39 41
2 7 10 7 5 13 7 20 14 9 14 15 15 22 14 15 23 39 62 66 73 69 57 56 59 46 37 30 21 11 2 8 13 16 18 19 24 29 33 36 38 40 43 46
5 7 25 8 21 13 4 2 6 7 13 20 29 13 6 26 37 31 42 53 54 56 64 61 52 41 34 21 13 4 6 15 20 22 23 28 34 39 43 46 49 50 51 54
8 5 9 10 8 3 2 2 4 12 25 38 27 13 13 28 25 38 53 50 59 60 59 57 45 34 25 16 8 8 13 18 23 27 30 36 40 45 49 51 50 49 50 50
7 4 6 7 5 7 3 6 8 23 12 28 34 26 22 36 42 38 59 72 63 60 56 47 37 25 17 11 11 18 23 27 30 35 38 42 45 47 46 45 46 48 48 47
5 4 8 8 4 4 6 7 9 37 12 27 48 42 55 71 87 49 52 68 65 55 46 38 27 20 14 17 22 25 27 29 33 36 38 37 36 36 37 40 42 46 48 44
7 2 6 6 8 5 4 6 14 8 7 14 54 45 49 62 25 15 55 65 59 48 38 31 23 18 15 21 24 27 30 30 29 33 35 33 34 35 35 35 41 42 39 34
8 7 10 7 8 7 24 23 13 12 10 51 67 54 41 16 31 58 57 54 45 36 31 25 22 27 34 31 33 32 35 36 36 33 35 34 33 34 32 33 37 38 34 31
5 9 6 8 6 6 23 19 14 12 39 57 54 73 80 84 73 64 56 50 41 38 31 27 27 30 29 30 33 38 41 42 43 40 32 31 30 30 29 30 33 30 29 31
3 7 10 5 6 3 41 61 58 72 71 68 81 76 91 79 74 67 61 51 40 31 26 22 22 23 27 33 34 35 40 45 49 43 34 29 27 24 24 27 28 28 25 27
15 17 20 23 16 38 66 66 70 79 77 73 81 84 82 81 70 65 57 47 37 27 22 17 19 24 30 33 32 35 34 47 52 41 32 27 26 26 27 27 28 26 26 29
3 11 28 37 35 55 60 74 84 84 88 86 78 76 77 74 66 59 51 39 32 29 22 16 19 23 29 29 34 35 35 46 56 41 30 26 29 31 30 27 22 20 20 20
7 23 21 23 33 55 45 72 91 90 85 86 86 79 70 66 64 53 45 34 30 29 21 19 18 22 26 26 34 32 36 42 57 48 33 28 31 33 34 30 24 18 14 13
Wind_Direction_850mb
195 197 207 211 218 228 224 220 236 220 229 238 245 255 236 251 228 236 242 250 247 250 245 243 228 198 178 172 178 186 195 204 195 186 201 216 209 211 206 213 223 226 238 261
220 218 203 206 201 204 212 234 244 288 266 221 249 250 240 233 230 231 234 238 234 237 235 232 215 184 180 174 170 162 161 194 189 205 216 212 217 227 242 229 238 223 230 202
215 216 201 202 212 210 220 228 228 239 300 271 270 265 253 248 229 232 234 235 237 229 225 219 202 188 180 171 162 170 171 179 162 172 188 206 219 228 225 218 219 217 226 231
226 232 198 202 217 208 229 213 233 252 250 251 165 269 226 211 204 202 221 235 243 233 207 202 193 183 179 176 174 178 178 173 169 171 183 196 196 192 203 213 206 213 224 228
208 200 218 211 213 207 232 219 227 242 249 251 273 222 266 144 237 256 252 226 229 213 204 198 190 181 177 175 178 177 171 169 173 177 198 204 225 240 231 207 210 221 222 218
219 201 201 226 219 218 218 230 233 247 243 246 250 165 282 190 184 267 274 215 183 185 194 195 189 173 173 176 169 169 174 175 182 197 201 205 217 226 229 216 220 207 200 188
214 219 225 203 225 224 213 206 237 218 206 218 230 144 226 234 258 252 188 176 182 185 193 183 171 169 175 174 172 179 179 179 187 195 198 202 215 217 212 198 176 175 185 192
214 216 212 218 207 205 214 198 163 187 161 192 203 193 250 238 324 25 208 171 182 189 201 171 171 172 170 170 173 176 182 179 185 194 199 203 205 192 191 187 190 196 201 206
191 221 176 217 226 212 219 197 200 153 158 91 243 116 14 28 20 40 63 67 84 140 151 157 162 161 160 162 165 169 165 168 174 164 157 159 164 168 171 175 182 193 206 220
283 208 229 241 240 226 209 199 167 289 132 162 297 73 137 20 31 44 58 53 65 88 104 127 144 142 140 125 114 107 121 134 138 148 156 158 161 169 175 185 201 215 228 241
267 30 7 47 117 226 221 213 189 127 126 145 131 235 183 141 96 77 64 70 67 75 83 98 118 116 110 105 104 106 109 113 115 121 126 142 160 181 213 230 250 266 275 281
205 305 180 205 278 328 186 124 150 167 168 159 152 240 177 149 113 100 77 81 88 85 85 97 101 107 110 112 112 112 116 112 113 118 121 119 106 299 293 293 294 293 292 291
164 207 121 49 321 217 205 129 123 117 117 184 139 243 2 120 115 111 107 105 101 104 94 92 109 106 112 113 114 114 116 121 128 136 121 307 297 294 292 291 291 291 293 295
29 186 156 180 128 123 132 132 253 153 104 156 168 151 188 92 127 125 116 114 112 114 112 134 120 115 105 109 116 125 122 115 113 317 311 304 300 294 292 293 292 291 291 293
293 196 166 114 133 135 147 210 221 179 171 153 181 148 169 158 142 148 139 130 136 136 141 142 135 131 128 126 127 128 121 311 306 302 303 300 296 295 294 292 290 291 291 291
220 246 159 105 81 40 166 229 325 184 113 100 128 88 160 118 117 124 136 135 130 127 117 124 126 124 121 118 106 78 307 301 301 299 295 293 292 293 293 294 296 296 295 293
218 241 94 124 20 359 193 249 284 134 148 139 142 146 117 125 140 151 142 124 118 117 119 128 125 115 105 92 54 340 324 309 298 294 295 292 290 292 294 296 298 298 299 299
236 87 68 123 83 175 164 269 252 106 99 112 113 116 115 104 113 122 116 115 112 118 122 113 106 98 71 36 351 339 319 309 307 302 299 295 297 298 299 301 303 305 305 306
224 104 97 108 94 320 125 15 113 120 91 116 118 120 118 111 95 77 108 127 121 117 111 101 88 72 45 17 359 338 325 319 316 311 308 311 312 310 311 313 320 323 320 316
160 227 108 108 97 96 303 182 196 154 54 151 134 137 133 123 104 121 121 121 116 110 101 91 71 63 42 30 12 358 355 350 343 340 333 327 324 322 321 327 333 327 325 324
176 159 105 109 100 197 105 150 169 76 200 149 136 135 118 96 119 133 125 112 108 101 94 87 76 58 47 36 26 23 19 12 1 346 333 330 330 330 328 329 328 325 322 322
76 116 101 86 122 89 107 125 169 164 112 115 109 112 105 115 123 122 116 112 108 102 92 77 69 58 47 29 18 18 17 10 1 354 342 334 332 334 333 333 330 329 330 335
189 162 127 101 109 43 84 109 115 118 114 116 115 117 121 121 122 121 117 115 109 99 84 65 51 48 40 26 19 15 15 8 3 358 355 350 349 350 346 345 340 342 344 337
60 45 110 90 72 89 95 97 104 111 113 115 118 122 126 123 125 121 118 115 109 96 76 54 46 45 34 23 19 15 11 14 11 9 11 13 15 16 8 360 352 348 346 354
87 109 105 100 102 91 90 100 108 110 120 122 128 132 131 131 127 126 121 118 112 103 93 77 55 40 31 23 18 17 12 14 19 21 22 27 26 18 15 26 4 359 9 19
56 135 119 123 114 109 111 112 123 118 121 128 128 126 128 129 126 125 117 115 109 100 98 87 62 37 26 28 21 26 17 14 19 25 24 20 21 21 21 27 50 34 50 37